Home   Weather   Mexico City   Past weeks
Flag for Mexico

Past Weather in Mexico City, Ciudad de México, Mexico — Yesterday and Last 2 Weeks

Now
66 °F

Passing clouds.


Feels Like: 66 °F
Forecast: 76 / 56 °F
Wind: 5 mph from Southeast

Location: Mexico City / Licenci

Current Time: Oct 15, 2019 at 12:17:34 pm

Latest Report: Oct 15, 2019 at 10:45 am


Visibility: 6 mi

Pressure: 30.34 "Hg (23.34 "Hg at 2241m altitude)

Humidity: 60%

Dew Point: 52 °F

Location of Mexico CityLocation

Past Weather in Mexico City — Graph

°F

Mexico City Temperature Yesterday

Maximum temperature yesterday: 81 °F (at 3:47 pm)
Minimum temperature yesterday: 57 °F (at 6:50 am)
Average temperature yesterday: 67 °F

High & Low Weather Summary for the Past Weeks

 TemperatureHumidityPressure
High81 °F (Oct 11, 4:51 pm)94% (Oct 13, 7:45 am)30.39 "Hg (Oct 13, 7:45 am)
Low54 °F (Oct 3, 7:51 am)21% (Oct 14, 3:47 pm)29.59 "Hg (Oct 14, 3:47 pm)
Average65 °F60%30.14 "Hg
* Reported Sep 30 10:45 am — Oct 15 10:45 am, Mexico City. Weather by CustomWeather, © 2019

Note: Actual official high and low records may vary slightly from our data, if they occured in-between our weather recording intervals... More about our weather records

Advertising

Mexico City Weather History for the Previous 24 Hours

Scroll right to see more
 ConditionsComfort  
Time TempWeatherWind HumidityBarometerVisibility
10:45 am
Tue, Oct 15
66 °FPassing clouds.5 mph60%30.34 "Hg6 mi
10:22 am66 °FPassing clouds.No wind60%30.34 "Hg6 mi
9:50 am63 °FScattered clouds.5 mph64%29.85 "Hg6 mi
9:20 am59 °FScattered clouds.7 mph77%30.33 "Hg6 mi
8:43 am55 °FScattered clouds.7 mph82%30.32 "Hg6 mi
7:49 am54 °FPartly sunny.6 mph82%30.32 "Hg6 mi
6:54 am54 °FPassing clouds.7 mph82%29.84 "Hg8 mi
5:44 am55 °FPassing clouds.6 mph77%30.29 "Hg7 mi
4:45 am57 °FPassing clouds.6 mph72%30.30 "Hg7 mi
2:45 am59 °FPassing clouds.7 mph68%30.32 "Hg9 mi
1:50 am61 °FPartly cloudy.9 mph63%30.33 "Hg10 mi
12:54 am63 °FPassing clouds.7 mph59%29.79 "Hg11 mi
11:43 pm
Mon, Oct 14
63 °FPassing clouds.7 mph59%30.34 "Hg11 mi
10:52 pm64 °FPassing clouds.9 mph56%30.33 "Hg11 mi
9:47 pm66 °FPassing clouds.9 mph56%29.80 "Hg11 mi
8:47 pm68 °FPassing clouds.12 mph49%30.27 "Hg10 mi
8:32 pm68 °FPassing clouds.10 mph49%30.26 "Hg10 mi
7:50 pm72 °FPassing clouds.12 mph44%30.24 "Hg10 mi
6:51 pm73 °FPartly sunny.12 mph47%29.67 "Hg8 mi
5:50 pm79 °FPartly sunny.10 mph30%30.19 "Hg8 mi
4:47 pm79 °FScattered clouds.7 mph23%30.17 "Hg9 mi
3:47 pm81 °FPassing clouds.6 mph21%29.59 "Hg8 mi
2:47 pm79 °FPassing clouds.6 mph26%30.23 "Hg8 mi
1:47 pm77 °FPassing clouds.13 mph34%30.26 "Hg7 mi
1:39 pm75 °FPassing clouds.6 mph36%30.27 "Hg7 mi
12:47 pm72 °FPassing clouds.No wind44%29.74 "Hg7 mi
Weather by CustomWeather, © 2019

See weather overview